Springfield, MO

7:20 AM CST on February 08, 2016 (GMT -0600)
Springfield-Branson Regional

Weather History for KSGF - February, 2015

Change the Weather History Date:

Friday, February 6, 2015

  Actual Average Record
Temperature  
Mean Temperature 41 °F 35 °F  
Max Temperature 58 °F 46 °F 72 °F (1904)
Min Temperature 24 °F 24 °F -10 °F (1985)
Degree Days  
Heating Degree Days 24 30  
Month to date heating degree days 203 184  
Since 1 July heating degree days 2911 2997  
Cooling Degree Days 0 0  
Month to date cooling degree days 0 0  
Year to date cooling degree days 0 0  
Moisture  
Dew Point 27 °F    
Average Humidity 58    
Maximum Humidity 76    
Minimum Humidity 40    
Precipitation  
Precipitation 0.00 in 0.07 in 1.18 in (1999)
Month to date precipitation 0.40 0.45  
Year to date precipitation 1.21 2.92  
Snow  
Snow 0.00 in - - ()
Month to date snowfall 0.2  
Since 1 July snowfall 2.7  
Snow Depth 0.00 in    
Sea Level Pressure  
Sea Level Pressure 30.17 in    
Wind  
Wind Speed 12 mph (South)    
Max Wind Speed 22 mph    
Max Gust Speed 26 mph    
Visibility 10 miles    
Events      
T = Trace of Precipitation, MM = Missing Value Source: NWS Daily Summary

Daily Weather History Graph

Daily Weather History Graph

Search for Another Location

Airport or City:

Trip Planner

Search our weather history database for the weather conditions in past years. The results will help you decide how hot, cold, wet, or windy it might be!

Date:

Astronomy

Feb. 06, 2015 Rise Set
Actual Time 7:12 AM CST 5:43 PM CST
Civil Twilight 6:45 AM CST 6:10 PM CST
Nautical Twilight 6:14 AM CST 6:41 PM CST
Astronomical Twilight 5:43 AM CST 7:12 PM CST
Moon 8:28 PM CST (2/6) 8:22 AM CST (2/6)
Length of Visible Light 11h 25m
Length of Day
10h 31m
Waning Gibbous, 93% of the Moon is Illuminated
Feb 6
Waning Gibbous
Feb 11
Last Quarter
Feb 18
New
Feb 25
First Quarter
Mar 5
Full

Hourly Weather History & Observations

Time (CST) Temp. Windchill Dew Point Humidity Pressure Visibility Wind Dir Wind Speed Gust Speed Precip Events Conditions
12:52 AM 25.0 °F 15.5 °F 14.0 °F 63% 30.33 in 10.0 mi South 9.2 mph - N/A   Clear
1:52 AM 24.1 °F 15.2 °F 15.1 °F 69% 30.32 in 10.0 mi South 8.1 mph - N/A   Clear
2:52 AM 26.1 °F 16.8 °F 15.1 °F 63% 30.31 in 10.0 mi South 9.2 mph - N/A   Clear
3:52 AM 26.1 °F 16.8 °F 16.0 °F 66% 30.29 in 10.0 mi South 9.2 mph - N/A   Clear
4:52 AM 26.1 °F 17.6 °F 17.1 °F 69% 30.29 in 10.0 mi South 8.1 mph - N/A   Clear
5:52 AM 26.1 °F 15.0 °F 17.1 °F 69% 30.27 in 10.0 mi SSE 12.7 mph - N/A   Clear
6:52 AM 27.0 °F 18.0 °F 18.0 °F 69% 30.27 in 10.0 mi South 9.2 mph - N/A   Clear
7:52 AM 28.0 °F 18.1 °F 19.0 °F 69% 30.26 in 10.0 mi South 11.5 mph - N/A   Clear
8:52 AM 34.0 °F 25.0 °F 23.0 °F 64% 30.25 in 10.0 mi South 12.7 mph - N/A   Clear
9:52 AM 39.0 °F 30.6 °F 28.0 °F 65% 30.23 in 10.0 mi South 15.0 mph - N/A   Clear
10:52 AM 46.0 °F 38.5 °F 33.1 °F 61% 30.22 in 10.0 mi SW 19.6 mph - N/A   Clear
11:52 AM 51.1 °F - 34.0 °F 52% 30.21 in 10.0 mi SSW 16.1 mph - N/A   Clear
12:52 PM 53.1 °F - 34.0 °F 48% 30.16 in 10.0 mi South 18.4 mph - N/A   Clear
1:52 PM 55.9 °F - 34.0 °F 44% 30.12 in 10.0 mi SSW 17.3 mph - N/A   Clear
2:52 PM 57.0 °F - 34.0 °F 42% 30.10 in 10.0 mi SSW 16.1 mph - N/A   Clear
3:52 PM 57.0 °F - 35.1 °F 44% 30.08 in 10.0 mi South 15.0 mph - N/A   Clear
4:52 PM 55.0 °F - 35.1 °F 47% 30.07 in 10.0 mi SSW 11.5 mph - N/A   Clear
5:52 PM 48.0 °F - 33.1 °F 56% 30.06 in 10.0 mi South 11.5 mph - N/A   Clear
6:52 PM 46.9 °F - 33.1 °F 59% 30.08 in 10.0 mi South 11.5 mph - N/A   Clear
7:52 PM 45.0 °F 38.9 °F 33.1 °F 63% 30.06 in 10.0 mi South 12.7 mph - N/A   Clear
8:52 PM 43.0 °F 36.8 °F 33.1 °F 68% 30.05 in 10.0 mi South 11.5 mph - N/A   Clear
9:52 PM 41.0 °F 35.2 °F 32.0 °F 70% 30.04 in 10.0 mi South 9.2 mph - N/A   Clear
10:52 PM 39.0 °F 32.3 °F 32.0 °F 76% 30.03 in 10.0 mi South 10.4 mph - N/A   Clear
11:52 PM 37.9 °F 30.9 °F 32.0 °F 79% 30.03 in 10.0 mi South 10.4 mph - N/A   Clear